GW4822 Weather Reports


time (UTC)temp
F
wind
direction
speed
knots
gust
knots
rain 1hr
in
rain 24hr
in
rain mn
in
humidity
%
barometer
mb
20260507151559 41 184 0.9 2.6 0.00 0.06 0.06 81 1020.6
20260507151057 41 184 0.9 1.7 0.00 0.06 0.06 82 1020.8
20260507150554 41 184 0.9 3.5 0.00 0.06 0.06 82 1020.7
20260507150051 41 189 1.7 2.6 0.00 0.06 0.06 81 1020.6
20260507145545 41 183 1.7 2.6 0.00 0.06 0.06 82 1020.8
20260507145044 41 175 0.9 6.1 0.00 0.06 0.06 83 1020.7
20260507144540 41 161 1.7 2.6 0.00 0.06 0.06 82 1020.6
20260507144038 41 188 1.7 1.7 0.00 0.06 0.06 82 1020.7
20260507143535 40 161 4.3 6.1 0.00 0.06 0.06 81 1020.7
20260507143032 40 186 2.6 2.6 0.00 0.06 0.06 81 1020.7
20260507142527 40 126 1.7 1.7 0.00 0.06 0.06 84 1020.8
20260507142024 40 195 1.7 2.6 0.00 0.06 0.06 83 1020.8
20260507141520 40 183 1.7 3.5 0.00 0.06 0.06 82 1020.7
20260507141017 39 188 0.9 2.6 0.00 0.06 0.06 82 1020.7
20260507140514 39 188 0.0 0.9 0.00 0.06 0.06 87 1020.8
20260507140012 38 188 0.9 1.7 0.00 0.06 0.06 87 1020.6
20260507135508 39 189 0.9 1.7 0.00 0.06 0.06 86 1020.7
20260507135006 38 188 0.0 0.9 0.05 0.06 0.06 87 1020.8
20260507134502 38 193 1.7 2.6 0.05 0.06 0.06 85 1020.8
20260507133958 39 222 3.5 6.1 0.00 0.05 0.05 83 1020.9
20260507133454 38 186 3.5 6.1 0.00 0.05 0.05 86 1021.0
20260507132953 38 186 4.3 6.1 0.00 0.05 0.05 86 1021.1
20260507132448 38 202 2.6 7.0 0.07 0.05 0.05 85 1021.0
20260507131945 39 191 4.3 7.0 0.07 0.05 0.05 85 1021.1
20260507131442 39 181 4.3 8.7 0.00 0.04 0.04 83 1021.0
20260507130939 39 182 5.2 7.0 0.00 0.04 0.04 79 1020.9
20260507130436 39 216 1.7 6.1 0.00 0.04 0.04 79 1021.0
20260507125935 39 207 1.7 3.5 0.00 0.04 0.04 80 1020.7
20260507125432 39 184 1.7 2.6 0.00 0.04 0.04 81 1020.7
20260507124930 40 226 3.5 6.1 0.00 0.04 0.04 79 1020.8
20260507124425 40 195 3.5 8.7 0.00 0.04 0.04 78 1020.7
20260507123924 41 233 3.5 5.2 0.00 0.04 0.04 74 1020.9
20260507123421 41 200 2.6 5.2 0.00 0.04 0.04 71 1020.9
20260507122917 41 162 1.7 3.5 0.00 0.04 0.04 72 1020.7
20260507122412 41 174 0.9 0.9 0.00 0.04 0.04 74 1020.6
20260507121909 41 174 0.9 2.6 0.00 0.04 0.04 73 1020.7
20260507121404 41 168 0.9 1.7 0.00 0.04 0.04 73 1020.5
20260507120901 41 163 2.6 2.6 0.00 0.04 0.04 73 1020.7
20260507120358 40 167 0.9 3.5 0.00 0.04 0.04 75 1020.5
20260507115854 40 188 0.9 1.7 0.00 0.04 0.04 76 1020.8
20260507115350 41 189 0.9 1.7 0.00 0.04 0.04 75 1020.7
20260507114846 41 188 0.9 1.7 0.00 0.04 0.04 75 1020.7
20260507114343 41 180 1.7 2.6 0.00 0.04 0.04 73 1020.9
20260507113840 41 175 1.7 3.5 0.00 0.04 0.04 73 1020.6
20260507113337 41 192 2.6 5.2 0.00 0.04 0.04 73 1020.8
20260507112835 41 184 5.2 7.8 0.00 0.04 0.04 75 1020.5
20260507112332 41 173 1.7 3.5 0.00 0.04 0.04 76 1020.8
20260507111830 41 180 1.7 2.6 0.00 0.04 0.04 77 1020.8
20260507111326 41 191 1.7 1.7 0.00 0.04 0.04 75 1020.5
20260507110822 41 190 1.7 2.6 0.00 0.04 0.04 75 1020.6
20260507110318 41 184 0.9 2.6 0.00 0.04 0.04 77 1020.7
20260507105815 41 191 1.7 2.6 0.00 0.04 0.04 78 1020.5
20260507105312 41 182 0.9 2.6 0.00 0.04 0.04 78 1020.8
20260507104809 41 186 1.7 1.7 0.00 0.04 0.04 78 1020.7
20260507104305 41 186 1.7 1.7 0.00 0.04 0.04 77 1020.4
20260507103801 41 189 1.7 3.5 0.00 0.04 0.04 78 1020.7
20260507103258 41 190 1.7 5.2 0.00 0.04 0.04 78 1020.4
20260507102754 41 196 0.9 1.7 0.00 0.04 0.04 82 1020.5
20260507102251 41 176 2.6 3.5 0.00 0.04 0.04 80 1020.5
20260507101747 41 189 1.7 2.6 0.00 0.04 0.04 80 1020.6
20260507101242 41 190 4.3 7.0 0.00 0.04 0.04 78 1020.5
20260507100740 40 192 2.6 5.2 0.00 0.04 0.04 79 1020.6
20260507100238 40 213 5.2 6.1 0.00 0.04 0.04 80 1020.4
20260507095736 40 201 2.6 3.5 0.00 0.04 0.04 84 1020.3
20260507095232 40 184 1.7 3.5 0.00 0.04 0.04 83 1020.3
20260507094729 40 204 2.6 6.1 0.00 0.04 0.04 81 1020.5
20260507094226 40 191 1.7 2.6 0.00 0.04 0.04 83 1020.6
20260507093723 40 190 1.7 3.5 0.00 0.04 0.04 81 1020.3
20260507093221 40 189 1.7 2.6 0.00 0.04 0.04 81 1020.4
20260507092718 40 156 2.6 5.2 0.00 0.04 0.04 81 1020.3
20260507092214 40 184 1.7 7.0 0.00 0.04 0.04 81 1020.4
20260507091711 40 203 4.3 7.0 0.00 0.04 0.04 83 1020.4
20260507091208 40 153 3.5 7.8 0.00 0.04 0.04 82 1020.3
20260507090703 40 204 5.2 7.8 0.00 0.04 0.04 84 1020.2
20260507090200 40 184 5.2 7.8 0.00 0.04 0.04 86 1020.3
20260507085657 40 244 4.3 7.8 0.05 0.04 0.04 87 1020.4
20260507085154 40 186 3.5 7.0 0.05 0.04 0.04 87 1020.0
20260507084651 40 211 5.2 11.3 0.00 0.03 0.03 88 1020.1
20260507084147 40 193 2.6 5.2 0.00 0.03 0.03 90 1020.0
20260507083644 41 192 5.2 6.1 0.07 0.03 0.03 87 1020.3
20260507083141 40 159 4.3 6.1 0.12 0.03 0.03 91 1019.9
20260507082637 40 183 1.7 2.6 0.05 0.02 0.02 93 1020.0
20260507082134 40 174 2.6 7.0 0.00 0.01 0.01 93 1020.1
20260507081630 40 167 0.9 7.0 0.00 0.01 0.01 92 1020.0
20260507081127 40 193 2.6 3.5 0.07 0.01 0.01 92 1020.1
20260507080623 40 160 0.9 3.5 0.07 0.01 0.01 93 1019.9
20260507080120 40 177 1.7 7.0 0.00 0.00 0.00 92 1020.0
20260507075620 40 153 1.7 6.1 0.00 0.22 0.22 91 1019.8
20260507075116 41 166 3.5 6.1 0.05 0.22 0.22 91 1019.9
20260507074613 40 137 5.2 7.8 0.05 0.22 0.22 89 1019.7
20260507074112 41 172 0.9 1.7 0.00 0.21 0.21 92 1019.5
20260507073607 41 127 5.2 7.0 0.07 0.21 0.21 90 1019.9
20260507073104 40 169 2.6 6.1 0.07 0.21 0.21 91 1019.7
20260507072601 40 173 3.5 7.0 0.05 0.20 0.20 92 1019.6
20260507072058 41 132 4.3 5.2 0.05 0.20 0.20 93 1019.5
20260507071556 40 128 1.7 5.2 0.07 0.19 0.19 92 1019.5
20260507071052 40 150 1.7 5.2 0.07 0.19 0.19 92 1019.5
20260507070549 40 127 1.7 3.5 0.00 0.18 0.18 93 1019.4
20260507070046 40 115 3.5 5.2 0.07 0.18 0.18 94 1019.4
20260507065542 40 151 1.7 5.2 0.07 0.18 0.18 94 1019.2
20260507065040 40 162 0.9 7.0 0.00 0.17 0.17 94 1019.1
20260507064538 41 149 2.6 6.1 0.05 0.17 0.17 95 1019.1
20260507064036 41 173 3.5 5.2 0.00 0.16 0.16 93 1019.1
20260507063533 41 175 2.6 6.1 0.00 0.16 0.16 92 1019.2
20260507063030 41 149 0.0 2.6 0.07 0.16 0.16 93 1019.2
20260507062527 41 159 0.9 1.7 0.12 0.16 0.16 93 1019.1
20260507062024 41 143 4.3 5.2 0.05 0.15 0.15 91 1019.0
20260507061522 41 159 0.9 1.7 0.00 0.14 0.14 92 1018.9
20260507061020 41 184 0.0 0.9 0.00 0.14 0.14 92 1019.0
20260507060517 41 188 0.9 1.7 0.07 0.14 0.14 92 1019.1
20260507060014 41 182 0.0 0.9 0.07 0.14 0.14 92 1018.8
20260507055514 41 224 1.7 5.2 0.05 0.13 0.13 91 1019.0
20260507055011 41 130 1.7 5.2 0.12 0.13 0.13 91 1018.9
20260507054507 41 166 1.7 3.5 0.12 0.12 0.12 91 1018.8
20260507054004 42 145 1.7 6.1 0.05 0.11 0.11 91 1018.7
20260507053502 42 168 1.7 3.5 0.00 0.10 0.10 89 1018.7
20260507053000 42 178 1.7 7.0 0.00 0.10 0.10 88 1018.4
20260507052458 42 171 0.9 1.7 0.00 0.10 0.10 90 1018.4
20260507051954 42 151 2.6 3.5 0.00 0.10 0.10 90 1018.4
20260507051452 42 159 1.7 2.6 0.00 0.10 0.10 91 1018.4
20260507050948 42 149 0.9 2.6 0.07 0.10 0.10 91 1018.2
20260507050445 41 131 1.7 3.5 0.00 0.09 0.09 91 1018.3
20260507045942 41 163 1.7 3.5 0.05 0.09 0.09 91 1018.2
20260507045438 42 147 1.7 3.5 0.05 0.09 0.09 89 1018.2
20260507044936 42 142 1.7 1.7 0.00 0.08 0.08 89 1018.3
20260507044432 42 162 0.9 2.6 0.00 0.08 0.08 89 1018.2
20260507043928 41 133 1.7 7.0 0.00 0.08 0.08 89 1018.3
20260507043425 41 161 1.7 3.5 0.00 0.08 0.08 90 1018.2
20260507042921 41 132 2.6 8.7 0.00 0.08 0.08 89 1018.2
20260507042418 41 94 1.7 5.2 0.00 0.08 0.08 90 1018.2
20260507041914 41 126 2.6 7.0 0.00 0.08 0.08 90 1018.0
20260507041411 41 118 4.3 7.0 0.00 0.08 0.08 90 1018.2
20260507040908 42 174 4.3 7.0 0.00 0.08 0.08 91 1017.8
20260507040404 42 138 2.6 7.8 0.07 0.08 0.08 90 1017.9
20260507035900 42 103 3.5 6.1 0.07 0.08 0.08 91 1018.3
20260507035356 42 147 2.6 7.0 0.05 0.07 0.07 90 1018.1
20260507034853 42 155 4.3 7.0 0.12 0.07 0.07 90 1017.9
20260507034350 43 127 2.6 7.8 0.14 0.06 0.06 87 1018.0
20260507033848 43 137 3.5 8.7 0.07 0.05 0.05 87 1017.9
20260507033346 43 233 1.7 6.1 0.05 0.04 0.04 88 1017.9
20260507032842 43 144 4.3 7.0 0.17 0.04 0.04 88 1017.9
20260507032339 43 179 1.7 5.2 0.12 0.03 0.03 87 1017.9
20260507031835 45 219 5.2 9.6 0.00 0.01 0.01 85 1018.0
20260507031332 46 176 5.2 7.8 0.00 0.01 0.01 74 1017.6
20260507030829 46 141 2.6 3.5 0.00 0.01 0.01 73 1017.5
20260507030326 46 178 2.6 6.1 0.00 0.01 0.01 71 1017.3
20260507025823 46 164 3.5 6.1 0.00 0.01 0.01 72 1017.2
20260507025320 47 173 2.6 7.8 0.00 0.01 0.01 70 1017.3
20260507024818 47 147 2.6 7.8 0.00 0.01 0.01 69 1017.4
20260507024315 48 125 3.5 6.1 0.00 0.01 0.01 69 1017.3
20260507023811 48 149 2.6 6.1 0.00 0.01 0.01 71 1017.2
20260507023307 48 157 2.6 8.7 0.00 0.01 0.01 70 1017.3
20260507022805 49 205 4.3 7.0 0.00 0.01 0.01 69 1017.1
20260507022301 48 144 2.6 9.6 0.00 0.01 0.01 71 1017.1
20260507021757 47 150 1.7 8.7 0.00 0.01 0.01 74 1017.1
20260507021253 48 101 6.1 9.6 0.00 0.01 0.01 68 1017.1
20260507020751 47 192 3.5 8.7 0.00 0.01 0.01 70 1017.1
20260507020248 47 180 6.1 7.8 0.00 0.01 0.01 71 1017.0
20260507015745 47 207 1.7 3.5 0.00 0.01 0.01 78 1017.0
20260507015242 46 191 1.7 2.6 0.00 0.01 0.01 80 1017.0
20260507014739 45 200 2.6 3.5 0.07 0.01 0.01 81 1017.0
20260507014235 45 163 0.9 2.6 0.07 0.01 0.01 82 1017.0
20260507013732 45 168 3.5 5.2 0.00 0.00 0.00 81 1017.0
20260507013230 45 189 0.9 2.6 0.00 0.00 0.00 85 1017.2
20260507012727 44 179 2.6 5.2 0.00 0.00 0.00 85 1017.2
20260507012222 44 211 3.5 3.5 0.00 0.00 0.00 86 1017.1
20260507011720 45 191 3.5 7.0 0.00 0.00 0.00 83 1017.2
20260507011216 45 195 6.1 12.2 0.00 0.00 0.00 80 1017.1
20260507010711 45 198 5.2 7.8 0.00 0.00 0.00 82 1017.1
20260507010207 45 201 3.5 8.7 0.00 0.00 0.00 82 1017.0
20260507005705 45 205 3.5 5.2 0.00 0.00 0.00 81 1016.9
20260507005201 45 191 0.9 5.2 0.00 0.00 0.00 80 1017.1
20260507004658 45 208 5.2 7.0 0.00 0.00 0.00 82 1017.0
20260507004155 44 212 3.5 5.2 0.00 0.00 0.00 86 1017.2
20260507003651 44 193 2.6 5.2 0.00 0.00 0.00 87 1016.9
20260507003151 44 236 4.3 7.0 0.00 0.00 0.00 84 1017.1
20260507002648 45 196 2.6 7.8 0.00 0.00 0.00 80 1017.0
20260507002144 45 188 2.6 5.2 0.00 0.00 0.00 80 1016.9
20260507001641 46 202 3.5 5.2 0.00 0.00 0.00 79 1016.7
20260507001139 46 180 5.2 7.0 0.00 0.00 0.00 77 1016.8
20260507000635 46 183 4.3 6.1 0.00 0.00 0.00 77 1016.7
20260507000130 46 215 1.7 3.5 0.00 0.00 0.00 77 1016.8
20260506235628 46 252 3.5 6.1 0.00 0.00 0.00 78 1016.9
20260506235127 46 201 1.7 6.1 0.00 0.00 0.00 80 1016.6
20260506234625 45 200 3.5 6.1 0.00 0.00 0.00 81 1016.7
20260506234122 45 182 2.6 6.1 0.00 0.00 0.00 82 1016.6
20260506233619 45 198 3.5 6.1 0.00 0.00 0.00 82 1016.4
20260506233116 46 226 3.5 7.0 0.00 0.00 0.00 80 1016.8
20260506232612 45 234 3.5 7.0 0.00 0.00 0.00 79 1016.7
20260506232107 45 205 2.6 7.8 0.00 0.00 0.00 81 1016.6
20260506231605 45 170 1.7 7.0 0.00 0.00 0.00 80 1016.7
20260506231103 45 215 3.5 6.1 0.00 0.00 0.00 80 1016.7
20260506230559 45 226 4.3 6.1 0.00 0.00 0.00 81 1016.5
20260506230056 45 262 2.6 6.1 0.00 0.00 0.00 79 1016.6
20260506225553 45 209 3.5 5.2 0.00 0.00 0.00 78 1016.6
20260506225049 45 228 2.6 3.5 0.00 0.00 0.00 80 1016.4
20260506224546 45 240 2.6 7.0 0.00 0.00 0.00 80 1016.5
20260506224043 45 199 1.7 6.1 0.00 0.00 0.00 78 1016.4
20260506223539 46 181 6.1 7.8 0.00 0.00 0.00 76 1016.4
20260506223035 46 270 4.3 6.1 0.00 0.00 0.00 75 1016.4
20260506222532 46 193 6.1 8.7 0.00 0.00 0.00 75 1016.4
20260506222029 46 196 5.2 8.7 0.00 0.00 0.00 75 1016.3
20260506221526 46 248 5.2 9.6 0.00 0.00 0.00 74 1016.1
20260506221024 46 172 6.1 11.3 0.00 0.00 0.00 74 1016.3
20260506220520 46 178 4.3 8.7 0.00 0.00 0.00 73 1016.0
20260506220016 46 184 3.5 8.7 0.00 0.00 0.00 75 1016.2
20260506215513 46 224 5.2 7.8 0.00 0.00 0.00 72 1016.2
20260506215008 48 189 5.2 9.6 0.00 0.00 0.00 70 1016.2
20260506214506 47 192 4.3 7.8 0.00 0.00 0.00 70 1016.1
20260506214003 47 198 7.8 12.2 0.00 0.00 0.00 69 1016.1
20260506213501 48 205 8.7 13.0 0.00 0.00 0.00 67 1016.1
20260506212957 47 209 3.5 7.8 0.00 0.00 0.00 68 1016.1
20260506212453 46 182 7.0 13.0 0.00 0.00 0.00 68 1015.9
20260506211948 46 209 7.0 9.6 0.00 0.00 0.00 67 1015.8
20260506211445 46 160 5.2 9.6 0.00 0.00 0.00 71 1015.8
20260506210942 46 189 9.6 11.3 0.00 0.00 0.00 68 1015.7
20260506210438 46 205 5.2 9.6 0.00 0.00 0.00 72 1015.7
20260506205936 45 191 5.2 12.2 0.00 0.00 0.00 73 1015.7
20260506205432 46 192 3.5 7.8 0.00 0.00 0.00 73 1015.8
20260506204928 45 184 4.3 9.6 0.00 0.00 0.00 75 1015.7
20260506204426 45 238 7.0 9.6 0.00 0.00 0.00 75 1015.6
20260506203923 46 196 2.6 7.8 0.00 0.00 0.00 71 1015.7
20260506203420 45 191 4.3 7.8 0.00 0.00 0.00 74 1015.6
20260506202917 44 195 4.3 7.8 0.00 0.00 0.00 75 1015.6
20260506202414 44 194 7.0 8.7 0.00 0.00 0.00 75 1015.6
20260506201911 45 213 6.1 9.6 0.00 0.00 0.00 75 1015.6
20260506201408 45 224 5.2 7.8 0.00 0.00 0.00 74 1015.5
20260506200904 45 178 3.5 9.6 0.00 0.00 0.00 74 1015.5
20260506200401 45 207 4.3 8.7 0.00 0.00 0.00 75 1015.5
20260506195857 45 184 4.3 9.6 0.00 0.00 0.00 74 1015.2
20260506195355 45 202 5.2 11.3 0.00 0.00 0.00 74 1015.3
20260506194851 46 171 4.3 9.6 0.00 0.00 0.00 74 1015.2
20260506194348 44 189 2.6 9.6 0.00 0.00 0.00 75 1015.2
20260506193845 44 210 7.8 12.2 0.00 0.00 0.00 76 1015.3
20260506193342 44 179 3.5 11.3 0.00 0.00 0.00 76 1015.4
20260506192838 45 180 3.5 7.8 0.00 0.00 0.00 75 1015.4
20260506192335 44 64 5.2 7.8 0.00 0.00 0.00 76 1015.4
20260506191832 44 159 2.6 5.2 0.00 0.00 0.00 76 1015.2
20260506191329 44 170 5.2 7.0 0.00 0.00 0.00 76 1015.3
20260506190826 44 155 1.7 7.0 0.00 0.00 0.00 77 1015.2
20260506190322 44 197 1.7 3.5 0.00 0.00 0.00 78 1015.2
20260506185819 44 196 3.5 3.5 0.00 0.00 0.00 78 1015.2
20260506185316 44 140 3.5 6.1 0.00 0.00 0.00 80 1015.1
20260506184813 43 182 3.5 6.1 0.00 0.00 0.00 80 1015.1
20260506184310 44 202 5.2 7.0 0.00 0.00 0.00 79 1015.2
20260506183807 44 204 2.6 3.5 0.00 0.00 0.00 76 1015.2
20260506183302 44 204 0.9 1.7 0.00 0.00 0.00 76 1015.1
20260506182800 44 192 1.7 3.5 0.00 0.00 0.00 77 1015.1
20260506182257 44 316 3.5 3.5 0.00 0.00 0.00 77 1015.2
20260506181755 44 192 1.7 2.6 0.00 0.00 0.00 77 1015.1
20260506181252 44 259 2.6 2.6 0.00 0.00 0.00 76 1015.2
20260506180749 44 203 1.7 5.2 0.00 0.00 0.00 77 1014.7
20260506180245 43 193 1.7 5.2 0.00 0.00 0.00 78 1014.9
20260506175741 44 222 1.7 2.6 0.00 0.00 0.00 77 1015.0
20260506175238 43 329 2.6 3.5 0.00 0.00 0.00 77 1014.7
20260506174736 43 259 5.2 7.0 0.00 0.00 0.00 78 1014.7
20260506174232 43 214 2.6 6.1 0.00 0.00 0.00 78 1014.7
20260506173731 43 214 3.5 5.2 0.00 0.00 0.00 78 1014.8
20260506173227 43 204 3.5 5.2 0.00 0.00 0.00 78 1014.9
20260506172724 43 193 1.7 5.2 0.00 0.00 0.00 77 1014.8
20260506172221 44 209 2.6 3.5 0.00 0.00 0.00 76 1014.7
20260506171718 43 188 0.0 2.6 0.00 0.00 0.00 75 1014.7
20260506171216 43 148 0.9 2.6 0.00 0.00 0.00 75 1014.8
20260506170713 43 286 1.7 3.5 0.00 0.00 0.00 75 1014.7
20260506170210 43 242 1.7 2.6 0.00 0.00 0.00 75 1014.5
20260506165708 43 186 0.9 1.7 0.00 0.00 0.00 76 1014.5
20260506165204 43 198 0.9 2.6 0.00 0.00 0.00 76 1014.6
20260506164702 43 194 1.7 1.7 0.00 0.00 0.00 76 1014.7
20260506164159 42 189 0.0 0.9 0.00 0.00 0.00 76 1014.3
20260506163655 42 188 0.0 0.9 0.00 0.00 0.00 76 1014.5
20260506163150 42 191 0.0 0.9 0.00 0.00 0.00 76 1014.5
20260506162646 43 178 0.9 0.9 0.00 0.00 0.00 76 1014.3
20260506162144 43 168 0.0 0.0 0.00 0.00 0.00 76 1014.1
20260506161641 42 190 0.0 1.7 0.00 0.00 0.00 76 1014.2
20260506161138 42 215 1.7 1.7 0.00 0.00 0.00 75 1014.2
20260506160636 42 153 0.0 0.9 0.00 0.00 0.00 75 1014.1
20260506160132 42 155 0.0 0.9 0.00 0.00 0.00 75 1014.2
20260506155631 42 158 0.0 0.9 0.00 0.00 0.00 75 1014.3
20260506155128 41 158 0.0 0.9 0.00 0.00 0.00 78 1013.9
20260506153230 41 158 0.0 0.0 0.00 0.00 0.00 78 1014.0
20260506152726 41 158 0.0 0.0 0.00 0.00 0.00 78 1014.2
20260506152224 41 158 0.0 0.0 0.00 0.00 0.00 79 1014.1
20260506151723 41 158 0.0 0.0 0.00 0.00 0.00 79 1014.1